Regional Weather Roundup
Issued by NWS

Home | Current Version | Previous Version | Text Only | Print | Product List | Glossary Off
Versions: 1 2 3 4 5 6 7 8 9 10 11 12 13 14 15 16 17 18 19 20 21 22 23 24 25 26 27 28 29 30 31 32 33 34 35 36 37 38 39 40 41 42 43 44 45 46 47 48 49 50

000
ASUS43 KDMX 212206
RWRIA

WEATHER ROUNDUP FOR IOWA
NATIONAL WEATHER SERVICE DES MOINES IA
500 PM CDT MON AUG 21 2017

NOTE: "FAIR" INDICATES FEW OR NO CLOUDS BELOW 12,000 FEET WITH NO
SIGNIFICANT WEATHER AND/OR OBSTRUCTIONS TO VISIBILITY.

* - THESE STATIONS ARE NOT NWS STATIONS...THUS NOT UNDER NWS
QUALITY CONTROL.  THEY ALSO DO NOT REPORT WEATHER SUCH
AS PRECIPITATION OR FOG.

IAZ001>003-012>014-020>022-031>034-043>046-212300-
   NORTHWEST IOWA

CITY           SKY/WX    TMP DP  RH WIND       PRES   REMARKS
CARROLL *      CLOUDY    79  73  83 W10       30.00R HX  82
CHEROKEE *     CLOUDY    66  65  97 SE18G24   29.92F
DENISON *      LGT RAIN  72  66  83 CALM      30.04R
LE MARS *      CLOUDY   104 N/A N/A E10G25    29.95R
ORANGE CITY *  CLOUDY    68  64  88 SE6       29.93R
SHELDON *      CLOUDY    66  64  94 E10       29.88R
SIOUX CITY     CLOUDY    70  67  90 SE13      29.92F
SPENCER        LGT RAIN  65  63  93 E26G36    29.85F
STORM LAKE *   LGT RAIN  64  63  94 E8G18     30.01F
$$

IAZ055>058-069>071-079>083-090>094-212300-
   SOUTHWEST IOWA

CITY           SKY/WX    TMP DP  RH WIND       PRES   REMARKS
ATLANTIC *     MOSUNNY   81  73  78 S10G18    29.94S HX  85
AUDUBON *      PTSUNNY   81  73  78 SW3       30.00R HX  85
CLARINDA *     MOSUNNY   82  73  74 S8        29.98R HX  88
COUNCIL BLFS * PTSUNNY   81  75  83 SW8G15    29.95R HX  86
CRESTON *      CLOUDY    82  72  69 S14G20    29.98S HX  87
HARLAN  *      CLOUDY    79  73  83 W7G14     30.01R HX  82
LAMONI         CLOUDY    76  69  79 S15G26    29.99R
RED OAK *      MOSUNNY   82  75  78 S8        29.96R HX  89
SHENANDOAH *   CLOUDY    84  75  74 S10       29.95R HX  92
$$

IAZ047>049-059>061-072>074-084-212300-
   CENTRAL IOWA

CITY           SKY/WX    TMP DP  RH WIND       PRES   REMARKS
AMES           CLOUDY    76  71  85 N9        29.97R
ANKENY *       CLOUDY    82  72  69 SW9G18    29.94R HX  87
BOONE *        CLOUDY    73  68  83 NE8G14    29.97R
CHARITON *     CLOUDY    79  70  73 S14G26    29.97R HX  81
DES MOINES     CLOUDY    85  71  63 SW12      29.93S HX  90
GRINNELL*      CLOUDY    81  70  70 W3        29.96S HX  84
KNOXVILLE *    CLOUDY    81  70  69 S12G17    29.93F HX  84
MARSHALLTOWN   CLOUDY    76  68  76 N10       29.97S
NEWTON *       CLOUDY    81  72  74 SW7       29.94S HX  84
PELLA *        CLOUDY    82  69  64 SW9       29.95S HX  86
PERRY *          N/A     81  74  80 SW8       29.93F HX  86
$$

IAZ004>006-015-016-023>025-035-036-212300-
   NORTH CENTRAL IOWA

CITY           SKY/WX    TMP DP  RH WIND       PRES   REMARKS
ALGONA *       HVY RAIN  66  66 100 W6G18     30.07R
CLARION *      CLOUDY    66  66 100 NE7       29.98F
ESTHERVILLE    RAIN      64  64 100 S10       29.99F FOG
FORT DODGE *   CLOUDY    66  63  88 N7        29.99R
MASON CITY     LGT RAIN  66  64  93 N5        30.03F FOG
FOREST CITY *  RAIN      66  64  94 N3        30.02R
WEBSTER CITY * LGT RAIN  68  66  94 NE13      29.95F
IOWA FALLS *   CLOUDY    74  66  76 N6        30.00F
$$

IAZ007>011-017>019-026>030-037>042-050>054-066-212300-
   NORTHEAST IOWA

CITY           SKY/WX    TMP DP  RH WIND       PRES   REMARKS
CEDAR RAPIDS   CLOUDY    77  70  79 N5        29.97R
CHARLES CITY * LGT RAIN  70  70 100 W3        30.03R
CLINTON *      CLOUDY    80  72  76 SW8       29.98S HX  84
DECORAH *      CLOUDY    72  66  83 VRB5      29.99F
DUBUQUE        MOSUNNY   76  68  76 SW13      29.99F
MONTICELLO *   PTSUNNY   77  70  78 W6        29.97S
OELWEIN *      CLOUDY    73  68  83 SW9       30.00S
WATERLOO       CLOUDY    73  68  84 NW5       29.98F
$$

IAZ064-065-067-068-078-212300-
   EAST CENTRAL IOWA

CITY           SKY/WX    TMP DP  RH WIND       PRES   REMARKS
DAVENPORT      MOSUNNY   79  70  74 SW5       29.99S HX  82
IOWA CITY      CLOUDY    80  71  74 E3        29.97  HX  84
MT. PLEASANT * PTSUNNY   80  64  59 SW12G22   29.96R HX  81
MUSCATINE *    CLOUDY    84  66  54 SW8G15    29.95S HX  86
QUAD CITIES    MOSUNNY   80  69  69 S8        29.96S HX  83
$$

IAZ062-063-075>077-085>089-095>099-212300-
   SOUTHEAST IOWA

CITY           SKY/WX    TMP DP  RH WIND       PRES   REMARKS
BURLINGTON     CLOUDY    79  72  79 S9        29.95S HX  82
FAIRFIELD *    CLOUDY    82  64  54 SW15G23   29.95R HX  84
FORT MADISON * CLOUDY    75  72  88 S12G17    29.99R
KEOKUK *       CLOUDY    77  73  88 SW10G20   29.97R
OSKALOOSA *      N/A     80  70  71 SW9G16    29.96R HX  83
CENTERVILLE *    N/A     77  68  73 S9G16     30.01R
OTTUMWA        CLOUDY    83  68  60 SW13G18   29.95R HX  86
WASHINGTON *   CLOUDY    82  73  74 CALM      29.96R HX  88
$$

ABBREVIATIONS USED IN REMARKS
   TC - TEMPERATURES IN CELSIUS
  WCI - WIND CHILL INDEX
   HX - HEAT INDEX
  VSB - VISIBILITY
$$





USA.gov is the U.S. government's official web portal to all federal, state and local government web resources and services.